Regional Weather Roundup
Issued by NWS

Home | Current Version | Previous Version | Text Only | Print | Product List | Glossary On
Versions: 1 2 3 4 5 6 7 8 9 10 11 12 13 14 15 16 17 18 19 20 21 22 23 24 25 26 27 28 29 30 31 32 33 34 35 36 37 38 39 40 41 42 43 44 45 46 47 48 49 50
149
ASUS44 KFWD 291615
RWRTX
NORTH TEXAS HOURLY WEATHER ROUNDUP
NATIONAL WEATHER SERVICE FORT WORTH TX
1100 AM CDT FRI APR 29 2016

NOTE: "FAIR" INDICATES FEW OR NO CLOUDS BELOW 12,000 FEET WITH NO
SIGNIFICANT WEATHER AND/OR OBSTRUCTIONS TO VISIBILITY.

TXZ118-119-291700-
DALLAS/FORT WORTH METROPLEX

CITY           SKY/WX    TMP DP  RH WIND       PRES   REMARKS
DFW AIRPORT    PTSUNNY   79  72  79 SE5       29.70S
DALLAS LOVE    CLOUDY    78  73  84 SE7       29.71S HAZE
FTW MEACHAM    CLOUDY    79  72  79 S7        29.69S
DAL-EXECUTIVE  CLOUDY    78  72  81 SE8       29.70F HAZE
FTW-ALLIANCE   CLOUDY    77  71  82 SE8       29.70S
FTW-NAS-JRB    CLOUDY    78  71  79 S8        29.70R
FTW-SPINKS     PTSUNNY   81  72  74 S12G17    29.71S HAZE
ARLINGTON      CLOUDY    81  73  76 S7        29.70S
GRAND PRAIRIE  MOSUNNY   79  72  78 SE7       29.72S
ADDISON        LGT RAIN  77  75  94 MISG      29.72S
LANCASTER      PTSUNNY   78  72  81 S7        29.72S HAZE
$$

TXZ091>094-102>105-117-120-121-131>134-291700-
NORTH CENTRAL TEXAS

CITY           SKY/WX    TMP DP  RH WIND       PRES   REMARKS
SHRMAN/DENISON PTSUNNY   67  62  85 NE8       29.76S
GAINESVILLE    LGT RAIN  67  65  94 E9        29.75F
BOWIE          CLOUDY    73  68  87 E6        29.71F
BRIDGEPORT     CLOUDY    75  74  96 E5        29.71F FOG
DECATUR        CLOUDY    73  72  97 E7        29.72F FOG
DENTON         CLOUDY    74  71  91 NE8       29.71S FOG
MCKINNEY       CLOUDY    75  73  93 E5        29.73F FOG
GREENVILLE     PTSUNNY   77  72  83 CALM      29.75S HAZE
ROCKWALL       CLOUDY    76  74  94 CALM      29.73S FOG
TERRELL        CLOUDY    78  73  84 S10G21    29.73S HAZE
WAXAHACHIE     CLOUDY    78  75  90 S10       29.72S FOG
CLEBURNE       PTSUNNY   79  75  89 S8G16     29.71S FOG
GRANBURY       CLOUDY    81  71  71 S12       29.69S
$$

TXZ083>090-098>101-113>116-127>130-139>142-154-155-291700-
WESTERN NORTH TEXAS

CITY           SKY/WX    TMP DP  RH WIND       PRES   REMARKS
WICHITA FALLS  CLOUDY    75  68  78 SE14      29.66F
WF-KICKAPOO    MOSUNNY   77  69  74 SE13G21   29.67F
VERNON         CLOUDY    71  61  72 SE15      29.65F
ABILENE        SUNNY     78  67  68 S18G28    29.69S
ABILENE-DYESS  MOSUNNY   79  67  68 S23       29.67R
BRECKENRIDGE   CLOUDY    80  65  58 S21G29    29.67R HAZE
GRAHAM         PTSUNNY   80  69  67 S9        29.66F
MINERAL WELLS  CLOUDY    77  70  79 SE5       29.67F
STEPHENVILLE   CLOUDY    79  69  71 SW9G18    29.72S
COMANCHE       SUNNY     80  69  70 S16G28    29.68F
BROWNWOOD      CLOUDY    79  68  69 S15G23    29.70S
COLEMAN        CLOUDY    76  66  71 S9        29.71R
$$

TXZ143>147-156>162-174-175-291700-
CENTRAL TEXAS

CITY           SKY/WX    TMP DP  RH WIND       PRES   REMARKS
WACO           CLOUDY    79  72  79 S9        29.70S HAZE
WACO-TSTC      PTSUNNY   81  73  78 S6        29.71R HAZE
WACO-MCGREGOR  MOSUNNY   80  74  81 S13G18    29.70S HAZE
HILLSBORO      PTSUNNY   80  72  77 S21G28    29.70S HAZE
CORSICANA      CLOUDY    79  72  79 S13       29.73S HAZE
MEXIA          CLOUDY    77  72  85 SE12      29.72R
HEARNE         CLOUDY    80  72  77 SE14G23   29.73S
CAMERON        CLOUDY    78  73  84 S7        29.71S HAZE
TEMPLE         CLOUDY    78  74  87 S14       29.71R FOG
KILLEEN        CLOUDY    79  72  78 S12       29.69F
KILLEEN-SKYLRK CLOUDY    78  73  84 S9        29.70S HAZE
FORT HOOD      CLOUDY    77  72  83 S9        29.68S
GATESVILLE     MOSUNNY   82  70  65 MISG      29.72S
HAMILTON       CLOUDY    81  72  74 S18       29.71F HAZE
LAMPASAS       CLOUDY    81  73  76 S13       29.70S
$$

TXZ095>097-106>112-122>126-135>138-148>153-164>167-291700-
EAST TEXAS

CITY           SKY/WX    TMP DP  RH WIND       PRES   REMARKS
PARIS          CLOUDY    66  57  72 NE9       29.77S THUNDER
SULPHUR SPRNGS CLOUDY    78  73  86 S10G20    29.77S FOG
MOUNT PLEASANT MOSUNNY   80  69  68 S9        29.78S
GILMER         CLOUDY    78  69  73 SE9G21    29.76S
MINEOLA        PTSUNNY   81  72  74 S8G20     29.75S HAZE
TYLER          PTSUNNY   79  68  69 S13G26    29.75F
LONGVIEW       PTSUNNY   78  68  71 S14G23    29.76S
MARSHALL       MOSUNNY   78  67  68 S15G24    29.80R
ATHENS         PTSUNNY   79  70  73 S13G18    29.73F
PALESTINE      PTSUNNY   79  72  78 SE6       29.76F
JACKSONVILLE   MOSUNNY   77  69  77 S9        29.79S
HENDERSON      CLOUDY    74  69  83 S5        29.78S
CENTER         FAIR      80  72  78 S9G16     29.78S
NACOGDOCHES    MOSUNNY   79  70  73 S13       29.77S
LUFKIN         MOSUNNY   79  69  71 S15G22    29.78S
$$

SUPPLEMENTAL OBSERVATIONS (CENTRAL)

CITY           SKY/WX    TMP DP  RH WIND       PRES   REMARKS
LAKE TEXOMA      N/A     68  64  88 E5          N/A
PAT MAYSE LAKE   N/A     66  64  94 N6          N/A
GREENVILLE       N/A     79  73  83 S5          N/A
CEDAR HILL       N/A     81  73  78 S7          N/A
ATHENS           N/A     81  68  65 S16G25      N/A
MCGREGOR         N/A     79  73  83 S12G20      N/A
TEMPLE           N/A     79  73  83 S15         N/A
$$

SUPPLEMENTAL OBSERVATIONS (WEST)

CITY           SKY/WX    TMP DP  RH WIND       PRES   REMARKS
MILLERS CREEK    N/A     79  70  73 S14         N/A
POSSUM KINGDOM   N/A     81  66  61 S12         N/A
GRANBURY         N/A     81  70  69 S14         N/A
HAMBY            N/A     79  66  65 SW24        N/A
IVIE RESERVOIR   N/A     79  68  69 SW12        N/A
COLORADO BEND    N/A     81  72  74 SW10        N/A
$$

SUPPLEMENTAL OBSERVATIONS (EAST)

CITY           SKY/WX    TMP DP  RH WIND       PRES   REMARKS
CLARKSVILLE      N/A     68  66  94 NE5         N/A
TEXARKANA        N/A     81  72  74 S6          N/A
LINDEN           N/A     81  70  69 S3G13       N/A
CADDO LAKE       N/A     82  68  61 S7G16       N/A
GILMER           N/A     81  68  65 S8G17       N/A
HENDERSON        N/A     75  68  78 S2G16       N/A
LUFKIN           N/A     81  68  65 MISG        N/A
N SABINE NF      N/A     75  70  83 MISG        N/A
S SABINE NF      N/A     81  72  74 SE5         N/A
$$

SUPPLEMENTAL OBSERVATIONS ARE A COLLECTION OF AUTOMATED INSTRUMENTS
THAT ARE MAINTAINED BY A VARIETY OF FEDERAL AND STATE AGENCIES.
CERTAIN ELEMENTS...SUCH AS HUMIDITY VALUES AND SUSTAINED WIND
SPEEDS...MAY BE APPROXIMATED.





USA.gov is the U.S. government's official web portal to all federal, state and local government web resources and services.